Hagerstown, MD

12:41 AM EDT on July 23, 2017 (GMT -0400)
Hagerstown Regional-Henson

Weather History for KHGR - July, 2013

Change the Weather History Date:

Tuesday, July 9, 2013

  Actual Average Record
Temperature  
Mean Temperature 77 °F 76 °F  
Max Temperature 81 °F 85 °F 97 °F (1999)
Min Temperature 72 °F 66 °F 57 °F (2000)
Degree Days  
Heating Degree Days 0 0  
Month to date heating degree days 0 0  
Since 1 June heating degree days 3 18  
Since 1 July heating degree days 0 0  
Cooling Degree Days 12 11  
Month to date cooling degree days 129 92  
Year to date cooling degree days 486 377  
Since 1 June cooling degree days 369 301  
Growing Degree Days 26 (Base 50)    
Moisture  
Dew Point 70 °F    
Average Humidity 80    
Maximum Humidity 90    
Minimum Humidity 69    
Precipitation  
Precipitation 0.12 in 0.10 in 0.12 in (2003)
Month to date precipitation 1.09 0.83  
Year to date precipitation 14.88 20.91  
Sea Level Pressure  
Sea Level Pressure 30.10 in    
Wind  
Wind Speed 5 mph (South)    
Max Wind Speed 12 mph    
Max Gust Speed 14 mph    
Visibility 8 miles    
Events Rain    
T = Trace of Precipitation, MM = Missing Value Source: NWS Daily Summary

Daily Weather History Graph

Daily Weather History Graph

Search for Another Location

Airport or City:

Trip Planner

Search our weather history database for the weather conditions in past years. The results will help you decide how hot, cold, wet, or windy it might be!

Date:

Astronomy

Jul. 09, 2013 Rise Set
Actual Time 5:51 AM EDT 8:40 PM EDT
Civil Twilight 5:19 AM EDT 9:12 PM EDT
Nautical Twilight 4:39 AM EDT 9:52 PM EDT
Astronomical Twilight 3:52 AM EDT 10:38 PM EDT
Moon 7:13 AM EDT (7/9) 9:17 PM EDT (7/9)
Length of Visible Light 15h 53m
Length of Day
14h 49m
New Moon, 2% of the Moon is Illuminated
Jul 9
New Moon
Jul 15
First Quarter
Jul 22
Full
Jul 29
Last Quarter
Aug 6
New

Hourly Weather History & Observations

Time (EDT) Temp. Heat Index Dew Point Humidity Pressure Visibility Wind Dir Wind Speed Gust Speed Precip Events Conditions
12:53 AM 75.0 °F - 66.9 °F 76% 30.12 in 10.0 mi Calm Calm - N/A   Partly Cloudy
1:53 AM 73.9 °F - 68.0 °F 82% 30.11 in 10.0 mi South 3.5 mph - N/A   Clear
2:53 AM 73.0 °F - 68.0 °F 84% 30.11 in 9.0 mi South 3.5 mph - N/A   Clear
3:53 AM 73.0 °F - 68.0 °F 84% 30.10 in 9.0 mi SSE 5.8 mph - N/A   Clear
4:53 AM 73.0 °F - 68.0 °F 84% 30.11 in 10.0 mi South 3.5 mph - N/A   Clear
5:53 AM 72.0 °F - 68.0 °F 87% 30.12 in 9.0 mi SSE 4.6 mph - N/A   Clear
6:53 AM 73.0 °F - 68.0 °F 84% 30.12 in 8.0 mi SSW 6.9 mph - N/A   Partly Cloudy
7:53 AM 73.0 °F - 68.0 °F 84% 30.13 in 8.0 mi South 4.6 mph - N/A   Overcast
8:53 AM 73.9 °F - 68.0 °F 82% 30.13 in 7.0 mi SW 5.8 mph - N/A   Overcast
9:53 AM 75.9 °F - 69.1 °F 79% 30.13 in 9.0 mi SSW 5.8 mph - N/A   Mostly Cloudy
10:53 AM 75.9 °F - 69.1 °F 79% 30.13 in 8.0 mi South 6.9 mph - N/A   Overcast
11:53 AM 77.0 °F - 69.1 °F 76% 30.13 in 8.0 mi West 6.9 mph - N/A   Overcast
12:28 PM 73.4 °F - 71.6 °F 94% 30.13 in 2.0 mi WNW 6.9 mph - 0.01 in Rain Light Rain
12:53 PM 73.9 °F - 72.0 °F 93% 30.15 in 2.0 mi West 3.5 mph - 0.02 in Rain Light Rain
1:14 PM 73.4 °F - 71.6 °F 94% 30.13 in 1.5 mi SW 4.6 mph - 0.03 in Rain Rain
1:33 PM 71.6 °F - 69.8 °F 94% 30.11 in 3.0 mi SE 8.1 mph - 0.09 in Rain Light Rain
1:53 PM 73.0 °F - 71.1 °F 93% 30.12 in 5.0 mi SE 6.9 mph - 0.09 in   Overcast
2:50 PM 75.2 °F - 71.6 °F 89% 30.09 in 5.0 mi South 6.9 mph - N/A   Overcast
2:53 PM 75.9 °F - 72.0 °F 87% 30.10 in 5.0 mi South 8.1 mph - N/A   Overcast
3:53 PM 78.1 °F - 70.0 °F 76% 30.07 in 10.0 mi South 6.9 mph - 0.01 in   Overcast
4:53 PM 81.0 °F 84.4 °F 70.0 °F 69% 30.06 in 10.0 mi SSW 9.2 mph - N/A   Clear
5:53 PM 82.0 °F 86.3 °F 71.1 °F 69% 30.03 in 10.0 mi South 8.1 mph - N/A   Mostly Cloudy
6:53 PM 82.0 °F 85.9 °F 70.0 °F 67% 30.03 in 10.0 mi South 4.6 mph - N/A   Overcast
7:53 PM 81.0 °F 84.4 °F 70.0 °F 69% 30.03 in 10.0 mi South 5.8 mph - N/A   Overcast
8:53 PM 80.1 °F 83.6 °F 71.1 °F 74% 30.04 in 10.0 mi South 5.8 mph - 0.00 in   Mostly Cloudy
9:53 PM 79.0 °F - 71.1 °F 77% 30.05 in 10.0 mi South 6.9 mph - N/A   Partly Cloudy
10:53 PM 79.0 °F - 70.0 °F 74% 30.05 in 10.0 mi South 5.8 mph - N/A   Overcast
11:53 PM 77.0 °F - 70.0 °F 79% 30.03 in 10.0 mi South 6.9 mph - N/A   Partly Cloudy